| time (UTC) | temp C | wind direction | speed KPH | gust KPH | rain 1hr cm | rain 24hr cm | rain mn cm | humidity % | barometer mb |
| 20260906113325 | 21 | 42 | 0.0 | 0.0 | 0.00 | 0.00 | 0.00 | 100 | 1014.0 |
| 20260906112341 | 21 | 42 | 0.0 | 0.0 | 0.00 | 0.00 | 0.00 | 100 | 1014.1 |
| 20260906111331 | 21 | 42 | 0.0 | 0.0 | 0.00 | 0.00 | 0.00 | 100 | 1014.1 |
| 20260906110345 | 21 | 42 | 0.0 | 0.0 | 0.00 | 0.00 | 0.00 | 100 | 1014.0 |
| 20260906105339 | 21 | 42 | 0.0 | 0.0 | 0.00 | 0.00 | 0.00 | 100 | 1013.9 |
| 20260906104326 | 21 | 42 | 0.0 | 0.0 | 0.00 | 0.00 | 0.00 | 100 | 1013.9 |
| 20260906103340 | 21 | 42 | 0.0 | 0.0 | 0.00 | 0.00 | 0.00 | 100 | 1013.8 |
| 20260906102326 | 21 | 42 | 0.0 | 0.0 | 0.00 | 0.00 | 0.00 | 100 | 1013.7 |
| 20260906101402 | 21 | 42 | 0.0 | 0.0 | 0.00 | 0.00 | 0.00 | 100 | 1013.5 |
| 20260906100328 | 21 | 42 | 0.0 | 0.0 | 0.00 | 0.00 | 0.00 | 100 | 1013.4 |
| 20260906095342 | 21 | 42 | 0.0 | 0.0 | 0.00 | 0.00 | 0.00 | 100 | 1013.4 |
| 20260906094356 | 21 | 42 | 0.0 | 0.0 | 0.00 | 0.00 | 0.00 | 100 | 1013.1 |
| 20260906093326 | 22 | 42 | 0.0 | 0.0 | 0.00 | 0.00 | 0.00 | 100 | 1012.9 |
| 20260905225342 | 32 | 199 | 3.2 | 11.3 | 0.00 | 0.00 | 0.00 | 82 | 1013.8 |
| 20260905224331 | 33 | 198 | 0.0 | 8.0 | 0.00 | 0.00 | 0.00 | 79 | 1013.4 |
| 20260905223318 | 33 | 224 | 1.6 | 11.3 | 0.00 | 0.00 | 0.00 | 78 | 1013.4 |
| 20260905222331 | 33 | 192 | 1.6 | 8.0 | 0.00 | 0.00 | 0.00 | 78 | 1013.3 |
| 20260905221320 | 33 | 194 | 1.6 | 9.7 | 0.00 | 0.00 | 0.00 | 78 | 1013.3 |
| 20260905220357 | 33 | 41 | 0.0 | 0.0 | 0.00 | 0.00 | 0.00 | 76 | 1013.1 |
| 20260905215324 | 33 | 41 | 0.0 | 1.6 | 0.00 | 0.00 | 0.00 | 75 | 1013.0 |
| 20260905214359 | 33 | 41 | 3.2 | 6.4 | 0.00 | 0.00 | 0.00 | 75 | 1013.0 |
| 20260905213326 | 33 | 41 | 0.0 | 3.2 | 0.00 | 0.00 | 0.00 | 75 | 1013.1 |
| 20260905212400 | 33 | 42 | 1.6 | 6.4 | 0.00 | 0.00 | 0.00 | 73 | 1012.9 |
| 20260905211329 | 33 | 42 | 0.0 | 0.0 | 0.00 | 0.00 | 0.00 | 76 | 1012.8 |
| 20260905210344 | 33 | 42 | 0.0 | 3.2 | 0.00 | 0.00 | 0.00 | 77 | 1012.7 |
| 20260905205329 | 33 | 42 | 1.6 | 3.2 | 0.00 | 0.00 | 0.00 | 75 | 1012.7 |
| 20260905204344 | 34 | 42 | 1.6 | 6.4 | 0.00 | 0.00 | 0.00 | 75 | 1012.6 |
| 20260905203338 | 34 | 54 | 0.0 | 3.2 | 0.00 | 0.00 | 0.00 | 76 | 1012.6 |
| 20260905202324 | 34 | 155 | 0.0 | 3.2 | 0.00 | 0.00 | 0.00 | 75 | 1012.5 |
| 20260905201339 | 34 | 124 | 1.6 | 6.4 | 0.00 | 0.00 | 0.00 | 75 | 1012.7 |
| 20260905200326 | 34 | 118 | 1.6 | 8.0 | 0.00 | 0.00 | 0.00 | 75 | 1012.9 |
| 20260905195400 | 34 | 203 | 3.2 | 9.7 | 0.00 | 0.00 | 0.00 | 74 | 1013.1 |
| 20260905194327 | 34 | 276 | 3.2 | 8.0 | 0.00 | 0.00 | 0.00 | 75 | 1013.1 |
| 20260905193339 | 34 | 282 | 1.6 | 4.8 | 0.00 | 0.00 | 0.00 | 76 | 1013.3 |
| 20260905192333 | 34 | 285 | 3.2 | 9.7 | 0.00 | 0.00 | 0.00 | 77 | 1013.5 |
| 20260905191320 | 34 | 184 | 1.6 | 8.0 | 0.00 | 0.00 | 0.00 | 78 | 1013.6 |
| 20260905190353 | 33 | 266 | 1.6 | 8.0 | 0.00 | 0.00 | 0.00 | 78 | 1013.9 |
| 20260905185319 | 33 | 124 | 1.6 | 3.2 | 0.00 | 0.00 | 0.00 | 78 | 1014.1 |
| 20260905184333 | 34 | 120 | 0.0 | 6.4 | 0.00 | 0.00 | 0.00 | 78 | 1014.3 |
| 20260905183321 | 34 | 67 | 3.2 | 8.0 | 0.00 | 0.00 | 0.00 | 78 | 1014.4 |
| 20260905182357 | 33 | 218 | 1.6 | 6.4 | 0.00 | 0.00 | 0.00 | 77 | 1014.7 |
| 20260905181325 | 33 | 226 | 3.2 | 8.0 | 0.00 | 0.00 | 0.00 | 80 | 1014.8 |
| 20260905180341 | 33 | 249 | 1.6 | 6.4 | 0.00 | 0.00 | 0.00 | 79 | 1014.9 |
| 20260905175328 | 33 | 236 | 1.6 | 6.4 | 0.00 | 0.00 | 0.00 | 79 | 1015.0 |
| 20260905174317 | 33 | 239 | 1.6 | 9.7 | 0.00 | 0.00 | 0.00 | 81 | 1015.1 |
| 20260905173334 | 32 | 226 | 3.2 | 8.0 | 0.00 | 0.00 | 0.00 | 82 | 1015.1 |
| 20260905172319 | 32 | 17 | 1.6 | 3.2 | 0.00 | 0.00 | 0.00 | 84 | 1015.3 |
| 20260905171352 | 32 | 17 | 1.6 | 6.4 | 0.00 | 0.00 | 0.00 | 83 | 1015.4 |
| 20260905170348 | 32 | 254 | 1.6 | 3.2 | 0.00 | 0.00 | 0.00 | 83 | 1015.7 |
| 20260905165341 | 32 | 252 | 1.6 | 4.8 | 0.00 | 0.00 | 0.00 | 84 | 1015.8 |
| 20260905164330 | 32 | 219 | 1.6 | 3.2 | 0.00 | 0.00 | 0.00 | 84 | 1016.0 |
| 20260905163317 | 32 | 327 | 1.6 | 6.4 | 0.00 | 0.00 | 0.00 | 85 | 1016.2 |
| 20260905162331 | 32 | 180 | 3.2 | 3.2 | 0.00 | 0.00 | 0.00 | 85 | 1016.4 |
| 20260905161324 | 31 | 116 | 1.6 | 9.7 | 0.00 | 0.00 | 0.00 | 86 | 1016.4 |
| 20260905160356 | 31 | 339 | 1.6 | 3.2 | 0.00 | 0.00 | 0.00 | 86 | 1016.5 |
| 20260905155326 | 31 | 339 | 3.2 | 6.4 | 0.00 | 0.00 | 0.00 | 87 | 1016.8 |
| 20260905154357 | 31 | 339 | 1.6 | 4.8 | 0.00 | 0.00 | 0.00 | 87 | 1017.0 |
| 20260905153330 | 30 | 340 | 1.6 | 8.0 | 0.00 | 0.00 | 0.00 | 89 | 1017.0 |
| 20260905152320 | 30 | 341 | 1.6 | 6.4 | 0.00 | 0.00 | 0.00 | 89 | 1017.0 |
| 20260905151335 | 30 | 341 | 1.6 | 8.0 | 0.00 | 0.00 | 0.00 | 89 | 1017.1 |
| 20260905150325 | 30 | 342 | 1.6 | 8.0 | 0.00 | 0.00 | 0.00 | 90 | 1017.1 |
| 20260905145338 | 30 | 342 | 1.6 | 3.2 | 0.00 | 0.00 | 0.00 | 91 | 1017.1 |
| 20260905144324 | 29 | 342 | 1.6 | 3.2 | 0.00 | 0.00 | 0.00 | 92 | 1017.1 |
| 20260905143340 | 28 | 342 | 1.6 | 6.4 | 0.00 | 0.00 | 0.00 | 93 | 1017.1 |
| 20260905142328 | 28 | 341 | 1.6 | 6.4 | 0.00 | 0.00 | 0.00 | 93 | 1017.1 |
| 20260905141403 | 28 | 341 | 1.6 | 3.2 | 0.00 | 0.00 | 0.00 | 94 | 1017.0 |
| 20260905140329 | 28 | 341 | 1.6 | 6.4 | 0.00 | 0.00 | 0.00 | 95 | 1017.0 |
| 20260905135340 | 28 | 239 | 1.6 | 6.4 | 0.00 | 0.00 | 0.00 | 96 | 1017.0 |
| 20260905134329 | 27 | 244 | 0.0 | 6.4 | 0.00 | 0.00 | 0.00 | 98 | 1017.1 |
| 20260905133342 | 27 | 204 | 1.6 | 3.2 | 0.00 | 0.00 | 0.00 | 99 | 1017.1 |
| 20260905132328 | 26 | 204 | 0.0 | 1.6 | 0.00 | 0.00 | 0.00 | 100 | 1017.1 |
| 20260905131341 | 26 | 204 | 0.0 | 3.2 | 0.00 | 0.00 | 0.00 | 100 | 1017.1 |
| 20260905130335 | 26 | 200 | 0.0 | 1.6 | 0.00 | 0.00 | 0.00 | 100 | 1017.2 |
| 20260905125322 | 25 | 200 | 0.0 | 1.6 | 0.00 | 0.00 | 0.00 | 100 | 1017.2 |
| 20260905124336 | 25 | 200 | 0.0 | 3.2 | 0.00 | 0.00 | 0.00 | 100 | 1017.1 |
| 20260905123325 | 25 | 195 | 0.0 | 0.0 | 0.00 | 0.00 | 0.00 | 100 | 1017.1 |
| 20260905122337 | 25 | 195 | 0.0 | 0.0 | 0.00 | 0.00 | 0.00 | 100 | 1016.9 |
| 20260905121328 | 24 | 195 | 0.0 | 0.0 | 0.00 | 0.00 | 0.00 | 100 | 1016.9 |
| 20260905120342 | 24 | 195 | 0.0 | 0.0 | 0.00 | 0.00 | 0.00 | 100 | 1017.0 |
| 20260905115335 | 23 | 195 | 0.0 | 0.0 | 0.00 | 0.00 | 0.00 | 100 | 1017.0 |
| 20260905114321 | 23 | 195 | 0.0 | 0.0 | 0.00 | 0.00 | 0.00 | 100 | 1017.1 |